| time (UTC) | temp F | wind direction | speed MPH | gust MPH | rain 1hr in | rain 24hr in | rain mn in | humidity % | barometer mb |
| 20260902053019 | 53 | 128 | 0.0 | 0.0 | 0.00 | 0.00 | 0.00 | 36 | 1007.0 |
| 20260902051518 | 53 | 128 | 0.0 | 0.0 | 0.00 | 0.00 | 0.00 | 36 | 1007.1 |
| 20260902050018 | 53 | 126 | 0.0 | 0.0 | 0.00 | 0.00 | 0.00 | 36 | 1007.5 |
| 20260902044525 | 53 | 130 | 0.0 | 0.0 | 0.00 | 0.00 | 0.00 | 37 | 1007.4 |
| 20260902043018 | 53 | 130 | 0.0 | 0.0 | 0.00 | 0.00 | 0.00 | 38 | 1007.3 |
| 20260902041517 | 54 | 126 | 0.0 | 0.0 | 0.00 | 0.00 | 0.00 | 46 | 1007.0 |
| 20260902040016 | 54 | 150 | 0.0 | 0.0 | 0.00 | 0.00 | 0.00 | 48 | 1007.0 |
| 20260902034515 | 54 | 182 | 0.0 | 0.0 | 0.00 | 0.00 | 0.00 | 48 | 1007.0 |
| 20260902033014 | 54 | 191 | 1.0 | 0.0 | 0.00 | 0.00 | 0.00 | 47 | 1006.7 |
| 20260902031525 | 54 | 160 | 0.0 | 0.0 | 0.00 | 0.00 | 0.00 | 47 | 1006.1 |
| 20260902030013 | 54 | 130 | 1.0 | 0.0 | 0.00 | 0.00 | 0.00 | 45 | 1006.5 |
| 20260902024514 | 55 | 191 | 1.0 | 0.0 | 0.00 | 0.00 | 0.00 | 44 | 1006.6 |
| 20260902023026 | 55 | 158 | 1.0 | 0.0 | 0.00 | 0.00 | 0.00 | 39 | 1006.6 |
| 20260902021510 | 55 | 161 | 1.0 | 0.0 | 0.00 | 0.00 | 0.00 | 38 | 1006.2 |
| 20260902020018 | 56 | 158 | 0.0 | 0.0 | 0.00 | 0.00 | 0.00 | 36 | 1006.8 |
| 20260902014518 | 56 | 195 | 1.0 | 0.0 | 0.00 | 0.00 | 0.00 | 34 | 1006.5 |
| 20260902013008 | 57 | 140 | 1.0 | 0.0 | 0.00 | 0.00 | 0.00 | 35 | 1006.4 |
| 20260902011507 | 58 | 219 | 2.0 | 0.0 | 0.00 | 0.00 | 0.00 | 35 | 1006.1 |
| 20260902010010 | 59 | 126 | 2.0 | 0.0 | 0.00 | 0.00 | 0.00 | 35 | 1006.0 |
| 20260902004507 | 61 | 124 | 4.0 | 0.0 | 0.00 | 0.00 | 0.00 | 35 | 1005.6 |
| 20260902003006 | 62 | 167 | 2.0 | 0.0 | 0.00 | 0.00 | 0.00 | 34 | 1005.7 |
| 20260902001506 | 63 | 121 | 2.0 | 0.0 | 0.00 | 0.00 | 0.00 | 28 | 1005.3 |
| 20260902000004 | 63 | 264 | 2.0 | 0.0 | 0.00 | 0.00 | 0.00 | 26 | 1005.4 |
| 20260901234503 | 63 | 253 | 3.0 | 0.0 | 0.00 | 0.00 | 0.00 | 25 | 1005.9 |
| 20260901233002 | 63 | 150 | 3.0 | 0.0 | 0.00 | 0.00 | 0.00 | 22 | 1005.4 |
| 20260901231503 | 64 | 186 | 3.0 | 0.0 | 0.00 | 0.00 | 0.00 | 22 | 1005.4 |
| 20260901230002 | 64 | 206 | 4.0 | 0.0 | 0.00 | 0.00 | 0.00 | 22 | 1005.5 |
| 20260901224601 | 65 | 210 | 2.0 | 0.0 | 0.00 | 0.00 | 0.00 | 20 | 1005.4 |
| 20260901223057 | 63 | 185 | 3.0 | 0.0 | 0.00 | 0.00 | 0.00 | 20 | 1005.8 |
| 20260901221624 | 63 | 212 | 6.0 | 0.0 | 0.00 | 0.00 | 0.00 | 20 | 1006.3 |
| 20260901220115 | 64 | 219 | 5.0 | 0.0 | 0.00 | 0.00 | 0.00 | 19 | 1005.9 |
| 20260901214554 | 64 | 23 | 3.0 | 0.0 | 0.00 | 0.00 | 0.00 | 19 | 1005.6 |
| 20260901213104 | 64 | 191 | 4.0 | 0.0 | 0.00 | 0.00 | 0.00 | 17 | 1005.8 |
| 20260901211545 | 64 | 124 | 4.0 | 0.0 | 0.00 | 0.00 | 0.00 | 16 | 1006.3 |
| 20260901210040 | 64 | 112 | 3.0 | 0.0 | 0.00 | 0.00 | 0.00 | 16 | 1006.2 |
| 20260901204536 | 63 | 162 | 4.0 | 0.0 | 0.00 | 0.00 | 0.00 | 17 | 1006.2 |
| 20260901203033 | 63 | 130 | 4.0 | 0.0 | 0.00 | 0.00 | 0.00 | 17 | 1006.3 |
| 20260901201533 | 63 | 160 | 5.0 | 0.0 | 0.00 | 0.00 | 0.00 | 17 | 1006.4 |
| 20260901200036 | 63 | 195 | 4.0 | 0.0 | 0.00 | 0.00 | 0.00 | 18 | 1006.3 |
| 20260901194525 | 63 | 184 | 5.0 | 0.0 | 0.00 | 0.00 | 0.00 | 18 | 1006.5 |
| 20260901193021 | 62 | 224 | 6.0 | 0.0 | 0.00 | 0.00 | 0.00 | 19 | 1006.6 |
| 20260901191523 | 62 | 167 | 5.0 | 0.0 | 0.00 | 0.00 | 0.00 | 19 | 1006.8 |
| 20260901190021 | 62 | 195 | 5.0 | 0.0 | 0.00 | 0.00 | 0.00 | 18 | 1007.3 |
| 20260901184513 | 61 | 217 | 4.0 | 0.0 | 0.00 | 0.00 | 0.00 | 19 | 1007.4 |
| 20260901183011 | 61 | 144 | 4.0 | 0.0 | 0.00 | 0.00 | 0.00 | 16 | 1007.4 |
| 20260901181518 | 60 | 189 | 4.0 | 0.0 | 0.00 | 0.00 | 0.00 | 15 | 1007.8 |
| 20260901180009 | 59 | 198 | 3.0 | 0.0 | 0.00 | 0.00 | 0.00 | 16 | 1007.4 |
| 20260901174508 | 59 | 203 | 5.0 | 0.0 | 0.00 | 0.00 | 0.00 | 17 | 1007.8 |
| 20260901173006 | 58 | 181 | 4.0 | 0.0 | 0.00 | 0.00 | 0.00 | 17 | 1007.4 |
| 20260901171505 | 58 | 219 | 4.0 | 0.0 | 0.00 | 0.00 | 0.00 | 19 | 1007.3 |
| 20260901170004 | 58 | 212 | 3.0 | 0.0 | 0.00 | 0.00 | 0.00 | 18 | 1007.3 |
| 20260901164503 | 58 | 130 | 4.0 | 0.0 | 0.00 | 0.00 | 0.00 | 16 | 1007.3 |
| 20260901163002 | 57 | 206 | 5.0 | 0.0 | 0.00 | 0.00 | 0.00 | 16 | 1007.0 |
| 20260901161601 | 57 | 216 | 3.0 | 0.0 | 0.00 | 0.00 | 0.00 | 16 | 1006.9 |
| 20260901160115 | 57 | 167 | 2.0 | 0.0 | 0.00 | 0.00 | 0.00 | 17 | 1007.3 |
| 20260901154558 | 56 | 210 | 3.0 | 0.0 | 0.00 | 0.00 | 0.00 | 16 | 1007.2 |
| 20260901153109 | 56 | 192 | 3.0 | 0.0 | 0.00 | 0.00 | 0.00 | 17 | 1007.1 |
| 20260901151556 | 55 | 200 | 3.0 | 0.0 | 0.00 | 0.00 | 0.00 | 17 | 1007.1 |
| 20260901150108 | 55 | 121 | 3.0 | 0.0 | 0.00 | 0.00 | 0.00 | 17 | 1007.0 |
| 20260901144555 | 55 | 202 | 3.0 | 0.0 | 0.00 | 0.00 | 0.00 | 20 | 1006.9 |
| 20260901143111 | 55 | 185 | 3.0 | 0.0 | 0.00 | 0.00 | 0.00 | 26 | 1006.9 |
| 20260901141552 | 55 | 133 | 2.0 | 0.0 | 0.00 | 0.00 | 0.00 | 27 | 1006.5 |
| 20260901140127 | 54 | 208 | 2.0 | 0.0 | 0.00 | 0.00 | 0.00 | 32 | 1006.3 |
| 20260901134546 | 54 | 182 | 2.0 | 0.0 | 0.00 | 0.00 | 0.00 | 26 | 1006.3 |
| 20260901133044 | 54 | 216 | 3.0 | 0.0 | 0.00 | 0.00 | 0.00 | 24 | 1006.1 |
| 20260901131544 | 54 | 176 | 3.0 | 0.0 | 0.00 | 0.00 | 0.00 | 24 | 1005.9 |
| 20260901130043 | 54 | 150 | 1.0 | 0.0 | 0.00 | 0.00 | 0.00 | 17 | 1005.6 |
| 20260901124540 | 53 | 137 | 1.0 | 0.0 | 0.00 | 0.00 | 0.00 | 17 | 1005.5 |
| 20260901123039 | 53 | 124 | 1.0 | 0.0 | 0.00 | 0.00 | 0.00 | 16 | 1005.5 |
| 20260901121537 | 53 | 176 | 1.0 | 0.0 | 0.00 | 0.00 | 0.00 | 17 | 1005.4 |
| 20260901120035 | 53 | 145 | 2.0 | 0.0 | 0.00 | 0.00 | 0.00 | 17 | 1004.4 |
| 20260901114535 | 53 | 185 | 1.0 | 0.0 | 0.00 | 0.00 | 0.00 | 17 | 1004.5 |
| 20260901113036 | 54 | 130 | 2.0 | 0.0 | 0.00 | 0.00 | 0.00 | 17 | 1004.7 |
| 20260901111532 | 54 | 154 | 1.0 | 0.0 | 0.00 | 0.00 | 0.00 | 17 | 1004.6 |
| 20260901110029 | 54 | 202 | 1.0 | 0.0 | 0.00 | 0.00 | 0.00 | 17 | 1003.7 |
| 20260901104528 | 54 | 148 | 2.0 | 0.0 | 0.00 | 0.00 | 0.00 | 18 | 1003.8 |
| 20260901103026 | 54 | 150 | 1.0 | 0.0 | 0.00 | 0.00 | 0.00 | 21 | 1003.9 |
| 20260901101550 | 54 | 195 | 1.0 | 0.0 | 0.00 | 0.00 | 0.00 | 22 | 1003.9 |
| 20260901100027 | 54 | 181 | 0.0 | 0.0 | 0.00 | 0.00 | 0.00 | 23 | 1003.6 |
| 20260901094534 | 54 | 196 | 0.0 | 0.0 | 0.00 | 0.00 | 0.00 | 37 | 1003.5 |
| 20260901093016 | 55 | 188 | 0.0 | 0.0 | 0.00 | 0.00 | 0.00 | 37 | 1003.6 |
| 20260901091511 | 55 | 210 | 0.0 | 0.0 | 0.00 | 0.00 | 0.00 | 37 | 1003.6 |
| 20260901090008 | 55 | 144 | 1.0 | 0.0 | 0.00 | 0.00 | 0.00 | 37 | 1003.1 |
| 20260901084503 | 55 | 152 | 1.0 | 0.0 | 0.00 | 0.00 | 0.00 | 37 | 1003.2 |
| 20260901083058 | 55 | 229 | 2.0 | 0.0 | 0.00 | 0.00 | 0.00 | 37 | 1003.4 |
| 20260901081600 | 55 | 148 | 1.0 | 0.0 | 0.00 | 0.00 | 0.00 | 37 | 1003.6 |
| 20260901080141 | 55 | 196 | 0.0 | 0.0 | 0.00 | 0.00 | 0.00 | 37 | 1004.2 |
| 20260901074549 | 55 | 133 | 0.0 | 0.0 | 0.00 | 0.00 | 0.00 | 36 | 1004.2 |
| 20260901073051 | 55 | 145 | 0.0 | 0.0 | 0.00 | 0.00 | 0.00 | 36 | 1004.3 |
| 20260901071548 | 54 | 127 | 0.0 | 0.0 | 0.00 | 0.00 | 0.00 | 41 | 1004.4 |
| 20260901070053 | 55 | 143 | 0.0 | 0.0 | 0.00 | 0.00 | 0.00 | 44 | 1004.9 |
| 20260901064554 | 55 | 137 | 0.0 | 0.0 | 0.00 | 0.00 | 0.00 | 45 | 1005.0 |
| 20260901063056 | 55 | 213 | 0.0 | 0.0 | 0.00 | 0.00 | 0.00 | 44 | 1004.4 |
| 20260901061559 | 55 | 157 | 0.0 | 0.0 | 0.00 | 0.00 | 0.00 | 40 | 1004.5 |
| 20260901060045 | 56 | 136 | 0.0 | 0.0 | 0.00 | 0.00 | 0.00 | 39 | 1005.2 |
| 20260901054550 | 56 | 137 | 0.0 | 0.0 | 0.00 | 0.00 | 0.00 | 41 | 1005.2 |